Location: Tryon
(41.5533°N, 100.9574°W)
Time: 19:47:42
(UTC-05:00)

Tiangong 2 - Visible Passes

Search period start: 21 March 2019 00:00
Search period end: 31 March 2019 00:00
Orbit: 379 x 390 km, 42.8° (Epoch: 21 March)

Date Brightness Start Highest point End Pass type
(mag) Time Alt. Az. Time Alt. Az. Time Alt. Az.
21 Mar 4.2 05:16:09 14° E 05:16:09 14° E 05:16:41 10° E visible
21 Mar 1.7 06:48:23 20° W 06:50:10 38° SSW 06:53:09 10° SE visible
22 Mar 2.4 05:51:54 34° SE 05:51:54 34° SE 05:53:53 10° ESE visible
23 Mar 2.4 06:27:47 23° SSW 06:27:48 23° SSW 06:30:24 10° SSE visible
29 Mar 3.4 21:51:52 10° SW 21:52:45 16° SSW 21:52:45 16° SSW visible
30 Mar 2.7 20:53:00 10° SSW 20:55:19 19° SSE 20:56:40 15° ESE visible
30 Mar 4.1 22:28:37 10° WSW 22:28:55 12° WSW 22:28:55 12° WSW visible
